• MPC Preparation (Info)

  • MPEC 2001-K52 : 2001 KA67

    The following Minor Planet Electronic Circular may be linked-to from your own Web pages, but must not otherwise be redistributed electronically.

    A form allowing access to any MPEC is at the bottom of this page.


    Read MPEC 2001-K51 Read MPEC 2001-K53


    M.P.E.C. 2001-K52                                Issued 2001 May 31, 18:27 UT
    
         The Minor Planet Electronic Circulars contain information on unusual
             minor planets and routine data on comets.  They are published
       on behalf of Commission 20 of the International Astronomical Union by the
              Minor Planet Center, Smithsonian Astrophysical Observatory,
                              Cambridge, MA 02138, U.S.A.
    
                 Prepared using the Tamkin Foundation Computer Network
    
                                  MPC@CFA.HARVARD.EDU
              URL http://cfa-www.harvard.edu/iau/mpc.html  ISSN 1523-6714
    
                                       2001 KA67
    
    Observations:
         K01K67A* C2001 05 30.34583 18 14 30.18 +62 44 51.7          16.9 R      699
         K01K67A  C2001 05 30.35542 18 14 22.33 +62 43 31.1                      699
         K01K67A  C2001 05 30.36502 18 14 14.59 +62 42 11.1                      699
         K01K67A  C2001 05 30.37459 18 14 06.81 +62 40 50.9                      699
         K01K67A  C2001 05 30.88501 18 07 43.65 +61 28 30.6          16.8 V      198
         K01K67A  C2001 05 30.90582 18 07 28.26 +61 25 32.9          16.8 R      163
         K01K67A  C2001 05 30.90630 18 07 28.39 +61 25 31.6                      165
         K01K67A  C2001 05 30.90664 18 07 27.68 +61 25 27.5                      163
         K01K67A  C2001 05 30.90772 18 07 26.77 +61 25 17.1                      163
         K01K67A  C2001 05 30.91018 18 07 25.08 +61 24 56.5                      163
         K01K67A  C2001 05 30.91057 18 07 24.80 +61 24 53.8                      163
         K01K67A  C2001 05 30.91115 18 07 24.31 +61 24 48.9                      163
         K01K67A  C2001 05 30.91228 18 07 24.00 +61 24 41.2                      165
         K01K67A  C2001 05 30.91815 18 07 19.79 +61 23 53.2                      165
         K01K67A  C2001 05 30.92050 18 07 17.95 +61 23 30.6                      165
         K01K67A  C2001 05 30.92722 18 07 12.28 +61 22 33.7          16.8 R      046
         K01K67A  C2001 05 30.92821 18 07 11.49 +61 22 25.3                      046
         K01K67A  C2001 05 30.92881 18 07 11.02 +61 22 20.2                      046
         K01K67A  C2001 05 30.92944 18 07 10.67 +61 22 15.1                      046
         K01K67A  C2001 05 30.94819 18 06 56.58 +61 19 35.8                      118
         K01K67A  C2001 05 30.94928 18 06 55.81 +61 19 27.5                      118
         K01K67A  C2001 05 30.95247 18 06 53.41 +61 18 59.5          16.1 R      118
         K01K67A  C2001 05 30.95370 18 06 52.53 +61 18 49.2                      118
         K01K67A  C2001 05 30.95870 18 06 49.63 +61 18 08.2          16.6 V      198
         K01K67A 2C2001 05 30.96861 18 06 42.12 +61 16 38.7          16.9 V      012
         K01K67A 2C2001 05 30.97009 18 06 41.01 +61 16 25.7          16.8 V      012
         K01K67A 2C2001 05 30.97189 18 06 39.71 +61 16 10.5          16.9 V      012
         K01K67A 2C2001 05 30.97370 18 06 38.33 +61 15 55.0          17.1 V      012
         K01K67A 2C2001 05 30.97574 18 06 36.86 +61 15 37.6          17.0 V      012
         K01K67A  C2001 05 31.25924 18 03 17.95 +60 34 56.7          16.6 R      918
         K01K67A  C2001 05 31.26060 18 03 16.99 +60 34 45.0          16.4 R      918
         K01K67A  C2001 05 31.26264 18 03 15.52 +60 34 27.7          16.5 R      918
         K01K67A  C2001 05 31.26455 18 03 14.20 +60 34 11.4          16.6 R      918
         K01K67A  C2001 05 31.34164 18 02 20.12 +60 23 12.4          16.7 R      711
         K01K67A  C2001 05 31.34464 18 02 18.00 +60 22 46.0          16.9 R      711
         K01K67A  C2001 05 31.34769 18 02 15.88 +60 22 19.6          16.3 R      711
         K01K67A  C2001 05 31.36123 18 02 06.79 +60 20 19.9          16.6 R      699
         K01K67A 1C2001 05 31.36475 18 02 04.94 +60 19 41.6                      658
         K01K67A 1C2001 05 31.36589 18 02 04.14 +60 19 31.8                      658
         K01K67A  C2001 05 31.36679 18 02 02.92 +60 19 31.6                      699
         K01K67A 1C2001 05 31.36688 18 02 03.44 +60 19 23.1                      658
         K01K67A  C2001 05 31.37234 18 01 59.01 +60 18 43.4                      699
         K01K67A  C2001 05 31.37796 18 01 54.87 +60 17 56.9                      699
    
    Observer details:
    012 Uccle.  Observer T. Pauwels.  0.85-m f/2.5 Schmidt + CCD.
    046 Klet.  Observer M. Tichy.  0.57-m f/5.2 reflector + CCD.
    118 Modra.  Observers L. Kornos, J. Toth.  0.6-m f/5.5 reflector + CCD.
    163 Roeser Observatory, Luxembourg.  Observer M. Dawson.  0.3-m f/5
        Schmidt-Cassegrain + CCD.
    165 Piera Observatory, Barcelona.  Observer J. Guarro.  0.40-m f/2 Schmidt
        + CCD.
    198 Wildburg.  Observer R. Apitzsch.  0.24-m Schmidt Cassagrain + CCD.
    658 National Research Council of Canada.  Observer D. D. Balam.  1.82-m
        Plaskett reflector + CCD.
    699 Lowell Observatory-LONEOS.  Observer M. E. Van Ness.  0.59-m LONEOS
        Schmidt + CCD.
    711 McDonald Observatory.  Observer J. G. Ries.  0.76-m reflector + CCD.
    918 Badlands Observatory, Quinn.  Observer R. Dyvig.  0.66-m f/4.8 reflector
        + CCD.
    
    Orbital elements:
    2001 KA67
    Epoch 2001 May 31.0 TT = JDT 2452060.5                  Spahr
    M  20.84712              (2000.0)            P               Q
    n   0.39131026     Peri.   37.68118     -0.78691456     -0.49597503
    a   1.8512080      Node   108.63935     +0.42858141     -0.86732879
    e   0.7103513      Incl.   22.79515     +0.44394081     -0.04182760
    P   2.52           H   17.1           G   0.15
    From 43 observations 2001 May 30-31.
    
    Ephemeris:
    2001 KA67                a,e,i = 1.85, 0.71, 23                  q = 0.5362
    Date    TT    R. A. (2000) Decl.     Delta      r     Elong.  Phase     V
    2001 05 21    22 22.6    +75 34.7    0.301    0.945    68.6    94.2    17.7
    2001 05 31    18 06.31   +61 12.2    0.271    1.071    94.7    70.6    16.9
    2001 06 10    16 59.48   +36 24.3    0.297    1.194   120.5    47.1    16.6
    2001 06 20    16 35.96   +16 35.8    0.377    1.312   135.6    32.8    16.9
    2001 06 30    16 26.77   +03 37.3    0.494    1.425   138.6    28.1    17.6
    2001 07 10    16 24.80   -04 45.0    0.636    1.533   134.8    28.1    18.3
    2001 07 20    16 27.27   -10 23.7    0.796    1.636   128.5    29.1    18.9
    2001 07 30    16 32.89   -14 24.3    0.971    1.733   121.6    29.9    19.5
    2001 08 09    16 40.83   -17 22.5    1.156    1.827   114.5    30.3    20.0
    2001 08 19    16 50.54   -19 38.8    1.349    1.915   107.6    30.2    20.5
    2001 08 29    17 01.68   -21 25.7    1.549    2.000   100.7    29.7    20.8
    2001 09 08    17 13.94   -22 50.3    1.752    2.081    94.0    28.9    21.2
    2001 09 18    17 27.11   -23 57.4    1.956    2.157    87.4    27.7    21.5
    2001 09 28    17 41.04   -24 50.3    2.160    2.231    80.8    26.3    21.7
    2001 10 08    17 55.55   -25 30.8    2.361    2.300    74.2    24.7    21.9
    2001 10 18    18 10.53   -26 00.6    2.557    2.367    67.7    22.9    22.1
    2001 10 28    18 25.89   -26 20.7    2.746    2.430    61.2    21.0    22.3
    2001 11 07    18 41.49   -26 31.9    2.926    2.489    54.7    19.0    22.4
    2001 11 17    18 57.27   -26 35.0    3.096    2.546    48.2    16.8    22.5
    2001 11 27    19 13.14   -26 30.7    3.252    2.600    41.7    14.6    22.6
    2001 12 07    19 29.01   -26 19.7    3.395    2.651    35.2    12.4    22.6
    2001 12 17    19 44.82   -26 02.5    3.521    2.700    28.7    10.1    22.6
    2001 12 27    20 00.49   -25 39.8    3.630    2.746    22.3     7.8    22.6
    2002 01 06    20 15.97   -25 12.6    3.721    2.789    16.0     5.6    22.6
    2002 01 16    20 31.20   -24 41.4    3.793    2.829    10.1     3.5    22.6
    2002 01 26    20 46.13   -24 07.2    3.844    2.867     6.1     2.1    22.6
    2002 02 05    21 00.71   -23 30.8    3.876    2.903     8.1     2.7    22.6
    2002 02 15    21 14.89   -22 53.3    3.887    2.936    13.6     4.5    22.8
    2002 02 25    21 28.63   -22 15.5    3.878    2.967    20.0     6.5    22.9
    2002 03 07    21 41.88   -21 38.7    3.849    2.995    26.6     8.5    23.0
    2002 03 17    21 54.60   -21 03.9    3.801    3.022    33.5    10.5    23.1
    2002 03 27    22 06.72   -20 32.4    3.736    3.046    40.4    12.3    23.1
    2002 04 06    22 18.19   -20 05.4    3.653    3.067    47.5    13.9    23.1
    2002 04 16    22 28.94   -19 44.4    3.555    3.087    54.7    15.4    23.1
    2002 04 26    22 38.85   -19 30.9    3.444    3.104    62.1    16.7    23.1
    2002 05 06    22 47.83   -19 26.5    3.322    3.119    69.7    17.7    23.1
    2002 05 16    22 55.74   -19 32.9    3.190    3.132    77.6    18.4    23.0
    
    Timothy B. Spahr             (C) Copyright 2001 MPC           M.P.E.C. 2001-K52
    

    Read MPEC 2001-K51 Read MPEC 2001-K53


    MPEC number:

    Enter an MPEC number in one of the following forms:

    • 1997-B01 (the full form)
    • J97B01 (the packed version of the full form)
    • B01 (the abbreviated form)